Simultaneous Nadir Overpasses (SNOs) Predictions

Prediction of SNOs between GOES-14 and AQUA Satellite Orbit:

Table of predicted SNOs for the next 14.0 days since TLE Epoch: 9/7/2018
Index Date Time (GOES-14) GOES-14 Lat,Lon AQUA Lat,Lon Distance(km) Time Diff (sec)
1 09/09/2018 08:36:05 0.36,-104.20 0.45,-104.71 57.57 80
2 09/11/2018 08:21:11 0.36,-104.17 -0.15,-101.74 276.74 80
3 09/11/2018 20:42:35 -0.35,-104.27 -0.93,-106.93 303.15 80
4 09/13/2018 20:33:02 -0.35,-104.25 -0.27,-103.98 31.87 80
5 09/15/2018 20:20:48 -0.35,-104.24 0.33,-101.01 366.93 80
6 09/16/2018 08:42:02 0.34,-104.15 0.76,-106.16 229.19 80
7 09/18/2018 08:27:08 0.34,-104.12 0.15,-103.20 105.27 80
8 09/18/2018 20:48:32 -0.32,-104.19 -1.24,-108.39 478.38 80
9 09/20/2018 08:14:56 0.33,-104.10 -0.52,-100.24 439.91 80
10 09/20/2018 20:36:19 -0.32,-104.17 -0.58,-105.43 143.27 80




NCC Satellite Simultaneous Nadir Overpasses (SNOs) Prediction Service
